Inquirer Daily News

Weather

Get conditions and forecasts for any City, State, ZIP code or Country:  
Northeast Philadelphia, PA
on Tuesday, January 22, 2013

Tuesday
Previous Day Next Day
Daily Summary
 ActualAverage (KTTN)Record (KTTN)
Temperature
Mean Temperature °F 31°F  
Max Temperature 25°F 39°F 72°F (1906)
Min Temperature 12°F 23°F -13°F (1984)
Degree Days
Heating Degree Days 46 34  
Month to date heating degree days 747  
Since 1 July heating degree days 2642  
Cooling Degree Days 0 0  
Month to date cooling degree days 0  
Year to date cooling degree days 0  
Moisture
Dew Point -1°F   
Average Humidity 42    
Maximum Humidity 53    
Minimum Humidity 32    
Precipitation
Precipitation 0.00 in 0.09 in 1.20 in (1987)
Month to date precipitation 2.24  
Year to date precipitation 2.24  
Wind
Wind Speed 15 mph   
Max Wind Speed 24 mph   
Max Gust Speed 31 mph   
Visibility 10 miles   
Events     

Key: T is trace of precipitation, MM is missing value
Source: NWS Daily Summary
Time(EST)TemperatureDew PointHumidity Pressure Visibility Wind DirectionWind SpeedGust SpeedPrecipitationEvents Conditions
12:54 AM 25.0°F 9.0°F 51% 29.91 in 10.0 miles NW 9.2 mph - N/A   Clear
1:54 AM 23.0°F 8.1°F 53% 29.94 in 10.0 miles WNW 12.7 mph 24.2 mph N/A   Partly Cloudy
2:54 AM 21.9°F 5.0°F 48% 29.95 in 10.0 miles WNW 24.2 mph 31.1 mph N/A   Clear
3:54 AM 19.9°F 1.0°F 44% 29.99 in 10.0 miles WNW 20.7 mph 27.6 mph N/A   Clear
4:54 AM 19.0°F 1.0°F 46% 30.01 in 10.0 miles WNW 16.1 mph 23.0 mph N/A   Clear
5:54 AM 18.0°F -0.0°F 45% 30.04 in 10.0 miles WNW 15.0 mph 23.0 mph N/A   Clear
6:54 AM 17.1°F -0.0°F 47% 30.07 in 10.0 miles WNW 16.1 mph 26.5 mph N/A   Clear
7:54 AM 17.1°F -0.0°F 47% 30.10 in 10.0 miles WNW 19.6 mph 26.5 mph N/A   Clear
8:54 AM 18.0°F -0.0°F 45% 30.11 in 10.0 miles WNW 18.4 mph 28.8 mph N/A   Clear
9:54 AM 19.0°F -0.0°F 43% 30.14 in 10.0 miles West 19.6 mph 28.8 mph N/A   Clear
10:54 AM 19.9°F 1.0°F 44% 30.14 in 10.0 miles NW 18.4 mph 25.3 mph N/A   Scattered Clouds
11:54 AM 19.9°F -2.0°F 38% 30.13 in 10.0 miles WNW 17.3 mph 28.8 mph N/A   Scattered Clouds
12:54 PM 21.0°F -2.9°F 35% 30.11 in 10.0 miles West 19.6 mph 27.6 mph N/A   Clear
1:54 PM 21.0°F -5.1°F 32% 30.11 in 10.0 miles NW 17.3 mph 25.3 mph N/A   Clear
2:54 PM 19.9°F -5.1°F 33% 30.12 in 10.0 miles West 17.3 mph 25.3 mph N/A   Clear
3:54 PM 19.0°F -5.1°F 34% 30.15 in 10.0 miles NW 15.0 mph 25.3 mph N/A   Mostly Cloudy
4:54 PM 18.0°F -4.0°F 38% 30.17 in 10.0 miles NW 15.0 mph 27.6 mph N/A   Scattered Clouds
5:54 PM 17.1°F -5.1°F 37% 30.20 in 10.0 miles WNW 11.5 mph - N/A   Clear
6:54 PM 17.1°F -6.0°F 36% 30.22 in 10.0 miles WNW 12.7 mph 18.4 mph N/A   Clear
7:54 PM 16.0°F -5.1°F 39% 30.25 in 10.0 miles WNW 13.8 mph 24.2 mph N/A   Clear
8:54 PM 15.1°F -4.0°F 43% 30.25 in 10.0 miles WNW 5.8 mph - N/A   Clear
9:54 PM 15.1°F -5.1°F 41% 30.28 in 10.0 miles WNW 12.7 mph 18.4 mph N/A   Partly Cloudy
10:54 PM 14.0°F -5.1°F 43% 30.30 in 10.0 miles WNW 12.7 mph 24.2 mph N/A   Clear
11:54 PM 12.9°F -6.0°F 43% 30.28 in 10.0 miles WNW 10.4 mph 18.4 mph N/A   Clear
Astronomy
Sunrise:07:16 AM (EST) Moon Rise:01:28 PM (EST)1/22
Sunset:05:07 PM (EST) Moon Set:03:35 AM (EST)1/22
Moon Phase
Jan. 22 Jan. 26 Feb. 03 Feb. 10 Feb. 17

Copyright © 2014 The Weather Underground, Inc.